Location: Nairn
(57.5833°N, 3.8667°W)
Time: 02:29:51
(UTC+00:00)

Lacrosse 4 Rocket - Pass Details

Date: 07 August 2020
Orbit: 544 x 615 km, 68.0° (Epoch: 19 September)

Event Time Altitude Azimuth Distance (km) Brightness Sun altitude
Exits shadow 01:49:15 18° 235° (SW) 1,437 2.9 -13.9°
Maximum altitude 01:52:19 70° 316° (NW) 614 1.6 -13.7°
Drops below altitude 10° 01:56:29 10° 41° (NE) 1,865 5.3 -13.5°
Sets 01:58:42 0° 44° (NE) 2,754 6.3 -13.4°
